Regional Weather Roundup
Issued by NWS

Home | Current Version | Previous Version | Graphics & Text | Print | Product List | Glossary On
Versions: 1 2 3 4 5 6 7 8 9 10 11 12 13 14 15 16 17 18 19 20 21 22 23 24 25 26 27 28 29 30 31 32 33 34 35 36 37 38 39 40 41 42 43 44 45 46 47 48 49 50
549
ASUS43 KLSX 061157
RWRMO

WEATHER SUMMARY FOR MISSOURI
NATIONAL WEATHER SERVICE SPRINGFIELD MO
700 AM CDT FRI MAY 06 2016

NOTE: "FAIR" INDICATES FEW OR NO CLOUDS BELOW 12,000 FEET WITH NO
       SIGNIFICANT WEATHER AND/OR OBSTRUCTIONS TO VISIBILITY.
       CURRENT SKY AND/OR WEATHER CONDITIONS ARE NOT AVAILABLE FOR
       CHILLICOTHE AND FARMINGTON.

MOZ001>031-035>038-043-044-053-054-061300-
...NORTHERN AND WESTERN MISSOURI...

CITY           SKY/WX    TMP DP  RH WIND       PRES   REMARKS
KANSAS CTY INT PTCLDY    50  41  71 S8        30.07R
6HR MIN TEMP:  48; 6HR MAX TEMP:  56;

LEE`S SUMMIT   CLEAR     54  36  50 SW6       30.08R
6HR MIN TEMP:  52; 6HR MAX TEMP:  57;

ST JOSEPH      CLEAR     50  47  89 S3        30.06R
6HR MIN TEMP:  47; 6HR MAX TEMP:  54;

CHILLICOTHE      N/A     46  43  89 CALM      30.07R
6HR MIN TEMP:  44; 6HR MAX TEMP:  49;


$$
MOZ066>068-077>081-088>096-101>105-061300-
...SOUTHWEST MISSOURI...

CITY           SKY/WX    TMP DP  RH WIND       PRES   REMARKS
SPRINGFIELD    CLEAR     44  38  79 S3        30.10R
6HR MIN TEMP:  42; 6HR MAX TEMP:  49;

JOPLIN         CLEAR     47  40  76 CALM      30.10R
6HR MIN TEMP:  45; 6HR MAX TEMP:  51;

BRANSON        CLEAR     43  36  75 CALM      30.11R

$$
MOZ032>034-039>042-045>050-055>058-069>072-061300-
...CENTRAL MISSOURI...

CITY           SKY/WX    TMP DP  RH WIND       PRES   REMARKS
COLUMBIA       NOT AVBL
JEFFERSON CITY CLEAR     42  41  96 CALM      30.09R
6HR MIN TEMP:  41; 6HR MAX TEMP:  47;

ROLLA          PTCLDY    45  40  82 SW9       30.08R
6HR MIN TEMP:  40; 6HR MAX TEMP:  49;

SEDALIA        CLEAR     51  41  68 SW9       30.09R
6HR MIN TEMP:  48; 6HR MAX TEMP:  55;

WARRENSBURG    CLEAR     45  41  87 CALM      30.08R

$$
MOZ051-052-059>065-061300-
...EAST CENTRAL MISSOURI...

CITY           SKY/WX    TMP DP  RH WIND       PRES   REMARKS
ST LOUIS INTL  SUNNY     51  43  74 W5        30.07R
6HR MIN TEMP:  48; 6HR MAX TEMP:  53;


$$
MOZ072>076-082>087-097>100-106>115-061300-
...SOUTH CENTRAL AND SOUTHEAST MISSOURI...

CITY           SKY/WX    TMP DP  RH WIND       PRES   REMARKS
CAPE GIRARDEAU SUNNY     45  44  97 CALM      30.07R
6HR MIN TEMP:  41; 6HR MAX TEMP:  46;

POPLAR BLUFF   SUNNY     48  44  86 NW3       30.09R
6HR MIN TEMP:  46; 6HR MAX TEMP:  49;

WEST PLAINS    CLEAR     49  39  68 W7        30.12R
6HR MIN TEMP:  40; 6HR MAX TEMP:  49;


$$



USA.gov is the U.S. government's official web portal to all federal, state and local government web resources and services.